CW4086 Weather Reports


time (UTC)temp
F
wind
direction
speed
knots
gust
knots
rain 1hr
in
rain 24hr
in
rain mn
in
humidity
%
barometer
mb
20260506180104 63 328 0.9 6.1 0.00 0.00 0.00 50 1019.4
20260506175604 62 328 2.6 6.1 0.00 0.00 0.00 53 1019.4
20260506175104 62 300 2.6 6.1 0.00 0.00 0.00 54 1019.4
20260506174604 62 331 2.6 6.1 0.00 0.00 0.00 53 1019.4
20260506174104 62 322 3.5 7.0 0.00 0.00 0.00 53 1019.4
20260506173104 61 267 3.5 6.1 0.00 0.00 0.00 56 1019.4
20260506172604 61 321 1.7 6.1 0.00 0.00 0.00 55 1019.4
20260506171104 60 316 2.6 6.1 0.00 0.00 0.00 57 1019.4
20260506170603 60 280 4.3 6.1 0.00 0.00 0.00 58 1019.4
20260506170104 59 289 3.5 5.2 0.00 0.00 0.00 58 1019.3
20260506165604 59 246 2.6 6.1 0.00 0.00 0.00 57 1019.3
20260506165104 59 285 2.6 6.1 0.00 0.00 0.00 58 1019.4
20260506164604 59 278 3.5 5.2 0.00 0.00 0.00 57 1019.4
20260506163603 58 307 1.7 4.3 0.00 0.00 0.00 61 1019.3
20260506163104 58 314 1.7 4.3 0.00 0.00 0.00 60 1019.4
20260506162604 57 321 2.6 4.3 0.00 0.00 0.00 61 1019.3
20260506160604 56 282 0.9 2.6 0.00 0.01 0.00 65 1019.4
20260506160104 56 282 1.7 4.3 0.00 0.01 0.00 65 1019.4
20260506155605 56 281 2.6 4.3 0.00 0.01 0.00 66 1019.4
20260506155104 56 329 1.7 2.6 0.00 0.01 0.00 66 1019.3
20260506154604 56 329 1.7 2.6 0.00 0.01 0.00 67 1019.3
20260506153603 56 346 0.9 2.6 0.00 0.01 0.00 69 1019.3
20260506153104 55 346 0.0 2.6 0.00 0.01 0.00 70 1019.2
20260506152603 54 346 0.0 2.6 0.00 0.01 0.00 69 1019.3
20260506152104 54 346 0.0 2.6 0.00 0.01 0.00 70 1019.3
20260506151604 54 346 1.7 2.6 0.00 0.01 0.00 70 1019.3
20260506151106 54 117 0.0 2.6 0.00 0.01 0.00 72 1019.3
20260506150604 54 117 0.0 0.9 0.00 0.01 0.00 72 1019.3
20260506150104 53 117 0.0 1.7 0.00 0.01 0.00 73 1019.2
20260506145604 54 117 0.0 1.7 0.00 0.01 0.00 73 1019.3
20260506145104 54 115 0.0 0.9 0.00 0.01 0.00 75 1019.3
20260506144604 54 115 0.0 0.0 0.00 0.01 0.00 78 1019.3
20260506144103 53 115 0.0 0.0 0.00 0.01 0.00 80 1019.2
20260506143604 52 115 0.0 0.0 0.00 0.02 0.00 81 1019.1
20260506143104 51 115 0.0 0.9 0.00 0.03 0.00 83 1019.1
20260506142605 50 115 0.0 1.7 0.00 0.03 0.00 84 1019.1
20260506142104 50 115 0.0 1.7 0.00 0.04 0.00 85 1019.0
20260506141605 49 117 0.9 0.9 0.00 0.04 0.00 86 1019.0
20260506141107 49 120 0.0 0.9 0.00 0.06 0.00 87 1019.0
20260506140603 48 120 0.0 0.9 0.00 0.06 0.00 87 1019.0
20260506135604 47 120 0.0 1.7 0.00 0.06 0.00 87 1018.9
20260506135104 47 120 0.0 1.7 0.00 0.07 0.00 87 1018.9
20260506134604 47 123 0.0 1.7 0.00 0.07 0.00 87 1018.9
20260506134104 46 146 0.0 1.7 0.00 0.07 0.00 87 1018.9
20260506133604 46 146 0.0 0.9 0.00 0.07 0.00 87 1018.8
20260506133104 46 146 0.0 0.9 0.00 0.08 0.00 87 1018.8
20260506132604 46 146 0.0 1.7 0.00 0.08 0.00 87 1018.8
20260506132104 46 146 0.0 1.7 0.00 0.09 0.00 88 1018.8
20260506130605 46 149 0.9 1.7 0.00 0.12 0.00 88 1018.7
20260506130104 46 149 0.0 1.7 0.00 0.13 0.00 87 1018.7
20260506125104 46 149 0.0 1.7 0.00 0.13 0.00 87 1018.5
20260506124604 46 150 0.0 1.7 0.00 0.13 0.00 87 1018.4
20260506123604 46 150 0.0 1.7 0.00 0.13 0.00 87 1018.4
20260506123104 46 150 0.9 1.7 0.00 0.13 0.00 87 1018.4
20260506122604 46 150 0.9 1.7 0.00 0.13 0.00 87 1018.4
20260506122104 46 151 0.9 1.7 0.00 0.13 0.00 87 1018.4
20260506121604 46 151 0.9 1.7 0.00 0.13 0.00 86 1018.4
20260506121106 46 151 0.0 0.9 0.00 0.13 0.00 87 1018.4
20260506120604 46 151 0.0 0.9 0.00 0.14 0.00 87 1018.4
20260506120104 46 151 0.0 0.9 0.00 0.14 0.00 87 1018.4
20260506115604 46 151 0.0 0.9 0.00 0.14 0.00 87 1018.4
20260506115104 46 151 0.0 0.9 0.00 0.14 0.00 87 1018.4
20260506114604 46 151 0.0 0.9 0.00 0.14 0.00 87 1018.4
20260506114104 46 151 0.0 0.9 0.00 0.15 0.00 87 1018.4
20260506113604 46 151 0.0 0.9 0.00 0.15 0.00 86 1018.4
20260506113104 46 151 0.0 0.9 0.00 0.15 0.00 86 1018.4
20260506112605 46 151 0.0 1.7 0.00 0.15 0.00 86 1018.4
20260506111604 46 151 0.0 1.7 0.00 0.15 0.00 85 1018.4
20260506110604 47 152 0.9 1.7 0.00 0.15 0.00 85 1018.4
20260506110104 47 155 0.9 1.7 0.00 0.15 0.00 85 1018.4
20260506105605 47 154 0.9 1.7 0.00 0.15 0.00 85 1018.4
20260506105104 47 155 0.0 0.9 0.00 0.15 0.00 85 1018.4
20260506104604 47 156 0.0 0.9 0.00 0.15 0.00 84 1018.4
20260506104104 48 156 0.0 1.7 0.00 0.15 0.00 84 1018.4
20260506103604 48 156 0.9 1.7 0.00 0.15 0.00 85 1018.4
20260506103104 48 156 0.0 1.7 0.00 0.15 0.00 84 1018.3
20260506102604 48 157 0.9 1.7 0.00 0.15 0.00 84 1018.3
20260506101606 48 169 0.9 1.7 0.00 0.15 0.00 83 1018.2
20260506101106 49 170 0.0 1.7 0.00 0.15 0.00 83 1018.2
20260506100604 49 171 0.9 1.7 0.00 0.15 0.00 83 1018.2
20260506100104 49 176 0.9 1.7 0.00 0.15 0.00 83 1018.2
20260506095604 49 180 0.9 1.7 0.00 0.15 0.00 83 1018.3
20260506094604 49 184 0.0 0.0 0.00 0.15 0.00 83 1018.3
20260506094104 49 184 0.0 0.9 0.00 0.15 0.00 82 1018.2
20260506093604 49 184 0.0 0.9 0.00 0.15 0.00 82 1018.3
20260506092604 50 184 0.0 0.0 0.00 0.15 0.00 81 1018.2
20260506091604 50 184 0.0 0.0 0.00 0.15 0.00 81 1018.3
20260506091104 50 184 0.0 0.0 0.00 0.15 0.00 81 1018.3
20260506090604 50 184 0.0 0.0 0.00 0.15 0.00 81 1018.3
20260506090104 50 184 0.0 0.0 0.00 0.15 0.00 81 1018.3
20260506085104 51 184 0.0 0.9 0.00 0.16 0.00 80 1018.3
20260506084604 51 184 0.0 0.9 0.00 0.17 0.00 80 1018.4
20260506084104 51 184 0.0 0.9 0.00 0.17 0.00 79 1018.4
20260506083604 51 184 0.0 0.0 0.00 0.17 0.00 79 1018.5
20260506082604 51 184 0.0 0.0 0.00 0.17 0.00 79 1018.7
20260506082106 52 184 0.0 0.0 0.00 0.17 0.00 78 1018.7
20260506081606 52 184 0.0 0.9 0.00 0.17 0.00 78 1018.7
20260506081107 52 184 0.0 0.9 0.00 0.17 0.00 78 1018.7
20260506080604 52 184 0.0 0.9 0.00 0.17 0.00 78 1018.7
20260506073104 52 184 0.0 0.9 0.00 0.18 0.00 78 1018.9
20260506072604 52 184 0.0 1.7 0.00 0.21 0.00 77 1018.9
20260506072105 52 184 0.0 1.7 0.00 0.23 0.00 77 1018.8
20260506071604 52 190 0.0 1.7 0.00 0.23 0.00 76 1018.9
20260506071104 52 191 0.0 0.9 0.00 0.23 0.00 76 1018.9
20260506070604 52 191 0.0 0.9 0.00 0.23 0.00 76 1018.9
20260506070104 52 191 0.0 1.7 0.00 0.23 0.00 75 1018.8
20260506062105 52 164 0.0 1.7 0.00 0.23 0.23 72 1018.5
20260506061604 52 176 0.9 1.7 0.00 0.23 0.23 72 1018.4
20260506061105 52 204 0.0 1.7 0.00 0.23 0.23 72 1018.5
20260506060603 52 162 0.9 2.6 0.00 0.23 0.23 72 1018.4
20260506060104 52 191 0.0 2.6 0.00 0.23 0.23 72 1018.4
20260506051104 53 163 0.9 1.7 0.00 0.23 0.23 74 1017.9
20260506050604 53 152 0.0 1.7 0.00 0.23 0.23 73 1017.8
20260506050105 53 168 0.0 1.7 0.00 0.23 0.23 73 1017.7
20260506044604 54 171 0.0 0.9 0.00 0.23 0.23 71 1017.6
20260506044104 54 178 0.0 0.9 0.00 0.23 0.23 71 1017.6
20260506043604 54 177 0.0 0.9 0.00 0.23 0.23 70 1017.6
20260506043103 54 172 0.0 0.9 0.00 0.23 0.23 69 1017.6
20260506042603 54 182 0.0 0.9 0.00 0.23 0.23 69 1017.5
20260506042106 54 182 0.0 0.9 0.00 0.23 0.23 69 1017.4
20260506041604 54 173 0.0 1.7 0.00 0.23 0.23 68 1017.2
20260506041106 54 173 0.0 1.7 0.00 0.23 0.23 69 1017.1
20260506040604 55 167 0.0 0.9 0.00 0.23 0.23 68 1017.1
20260506040104 55 168 0.0 0.0 0.00 0.23 0.23 67 1017.1
20260506035604 55 168 0.0 0.9 0.00 0.23 0.23 67 1017.1
20260506034603 55 167 0.0 0.9 0.00 0.23 0.23 67 1016.9
20260506034104 55 167 0.0 0.9 0.00 0.23 0.23 66 1016.8
20260506033604 55 167 0.0 0.9 0.00 0.23 0.23 66 1016.8
20260506033104 55 167 0.0 0.9 0.00 0.23 0.23 66 1016.7
20260506032604 55 167 0.0 1.7 0.00 0.23 0.23 66 1016.6
20260506031604 55 168 0.0 0.9 0.00 0.23 0.23 65 1016.5
20260506031106 55 168 0.0 0.9 0.00 0.23 0.23 65 1016.5
20260506030104 55 168 0.0 0.9 0.00 0.23 0.23 65 1016.5
20260506025603 55 170 0.0 1.7 0.00 0.23 0.23 65 1016.4
20260506025104 55 170 0.0 1.7 0.00 0.23 0.23 66 1016.2
20260506024605 55 161 0.9 1.7 0.00 0.23 0.23 66 1016.0
20260506024104 55 238 0.9 1.7 0.00 0.23 0.23 66 1016.0
20260506023604 55 261 0.0 1.7 0.00 0.23 0.23 67 1016.0
20260506023104 55 259 0.9 2.6 0.00 0.23 0.23 67 1016.0
20260506022604 55 247 0.9 2.6 0.00 0.23 0.23 66 1015.9
20260506022104 55 329 0.9 2.6 0.00 0.23 0.23 66 1015.9
20260506021106 55 250 0.9 2.6 0.00 0.23 0.23 66 1015.7
20260506020605 55 274 0.9 2.6 0.00 0.23 0.23 66 1015.5
20260506020104 56 261 0.9 2.6 0.00 0.23 0.23 66 1015.4
20260506015604 56 261 0.9 5.2 0.00 0.23 0.23 65 1015.4
20260506014104 56 300 1.7 6.1 0.00 0.23 0.23 64 1015.2
20260506013604 56 273 1.7 6.1 0.00 0.23 0.23 64 1015.0
20260506013105 56 266 1.7 4.3 0.00 0.23 0.23 64 1014.9
20260506012605 57 303 1.7 4.3 0.00 0.23 0.23 63 1014.9
20260506012104 57 331 1.7 4.3 0.00 0.23 0.23 62 1014.8
20260506011605 57 266 0.9 2.6 0.00 0.23 0.23 62 1014.8
20260506011106 57 280 1.7 2.6 0.00 0.23 0.23 61 1014.8
20260506010603 57 285 1.7 4.3 0.00 0.23 0.23 60 1014.8
20260506010104 58 286 1.7 4.3 0.00 0.23 0.23 60 1014.8
20260506005604 58 274 1.7 6.1 0.00 0.23 0.23 59 1014.8
20260506005103 58 284 2.6 6.1 0.00 0.23 0.23 58 1014.7
20260506004604 58 316 2.6 8.7 0.00 0.23 0.23 57 1014.7
20260506004103 59 271 2.6 8.7 0.00 0.23 0.23 56 1014.7
20260506003604 59 282 5.2 8.7 0.00 0.23 0.23 54 1014.5
20260506003103 60 300 4.3 10.4 0.00 0.23 0.23 54 1014.6
20260506002604 60 276 5.2 10.4 0.00 0.23 0.23 54 1014.6
20260506002103 61 262 2.6 7.0 0.00 0.23 0.23 53 1014.6
20260506001605 61 275 4.3 7.8 0.00 0.23 0.23 54 1014.6
20260506000104 61 272 4.3 10.4 0.00 0.23 0.23 52 1014.5
20260505235604 61 268 6.1 10.4 0.00 0.23 0.23 54 1014.5
20260505235104 62 257 4.3 6.1 0.00 0.23 0.23 51 1014.5
20260505234603 62 237 3.5 7.8 0.00 0.23 0.23 52 1014.4
20260505234103 61 231 1.7 7.8 0.00 0.23 0.23 52 1014.4
20260505233604 61 245 4.3 8.7 0.00 0.23 0.23 54 1014.4
20260505233105 62 270 4.3 8.7 0.00 0.23 0.23 52 1014.5
20260505232603 62 250 4.3 8.7 0.00 0.23 0.23 51 1014.4
20260505232105 62 272 4.3 8.7 0.00 0.23 0.23 54 1014.4
20260505231604 62 220 2.6 10.4 0.00 0.23 0.23 53 1014.5
20260505231107 62 266 5.2 10.4 0.00 0.23 0.23 54 1014.6
20260505230604 62 273 5.2 10.4 0.00 0.23 0.23 54 1014.6
20260505230105 61 252 1.7 6.1 0.00 0.23 0.23 57 1014.6
20260505225604 60 247 3.5 5.2 0.00 0.23 0.23 56 1014.8
20260505225104 60 270 3.5 6.1 0.00 0.23 0.23 56 1014.8
20260505224604 59 336 2.6 7.0 0.00 0.23 0.23 56 1014.8
20260505224104 59 290 2.6 7.0 0.00 0.23 0.23 58 1014.8
20260505223604 59 336 2.6 6.1 0.00 0.23 0.23 59 1014.9
20260505223105 59 291 1.7 8.7 0.00 0.23 0.23 61 1014.9
20260505222604 58 287 2.6 8.7 0.00 0.23 0.23 60 1014.9
20260505222104 58 262 4.3 7.0 0.00 0.23 0.23 60 1014.9
20260505221604 58 261 2.6 6.1 0.00 0.23 0.23 60 1015.0
20260505221106 58 288 1.7 6.1 0.00 0.23 0.23 62 1015.1
20260505220603 58 287 4.3 6.1 0.00 0.23 0.23 62 1015.2
20260505220105 58 290 2.6 5.2 0.00 0.23 0.23 62 1015.3
20260505215604 58 303 2.6 5.2 0.00 0.23 0.23 63 1015.3
20260505215104 58 289 2.6 4.3 0.00 0.23 0.23 61 1015.3
20260505214604 58 290 0.9 4.3 0.00 0.23 0.23 62 1015.3
20260505214104 58 283 1.7 4.3 0.00 0.23 0.23 62 1015.3
20260505213604 58 270 0.9 2.6 0.00 0.23 0.23 62 1015.3
20260505213104 58 270 0.9 2.6 0.00 0.23 0.23 62 1015.4
20260505212603 58 270 0.0 2.6 0.00 0.23 0.23 62 1015.4
20260505212104 58 298 0.9 2.6 0.00 0.23 0.23 63 1015.4
20260505211604 57 298 0.0 4.3 0.00 0.23 0.23 63 1015.4
20260505211106 57 298 1.7 4.3 0.00 0.23 0.23 64 1015.4
20260505210604 57 314 2.6 4.3 0.00 0.23 0.23 64 1015.4
20260505210104 57 307 1.7 4.3 0.00 0.23 0.23 64 1015.4
20260505205604 57 295 1.7 2.6 0.00 0.23 0.23 63 1015.4
20260505204604 57 295 0.9 2.6 0.00 0.23 0.23 65 1015.4
20260505204105 57 298 0.9 7.0 0.00 0.23 0.23 66 1015.4
20260505203604 57 298 1.7 7.0 0.00 0.23 0.23 66 1015.4
20260505203104 57 321 4.3 7.0 0.00 0.23 0.23 66 1015.4
20260505202604 57 303 1.7 4.3 0.00 0.23 0.23 66 1015.4
20260505202104 57 303 1.7 5.2 0.00 0.23 0.23 67 1015.4
20260505201604 57 294 2.6 6.1 0.00 0.23 0.23 67 1015.4
20260505201106 57 242 2.6 10.4 0.00 0.23 0.23 66 1015.5
20260505200604 58 255 4.3 10.4 0.00 0.23 0.23 66 1015.5
20260505200105 58 226 2.6 5.2 0.00 0.23 0.23 68 1015.5
20260505195104 57 254 0.9 5.2 0.00 0.23 0.23 73 1015.5
20260505194604 57 280 2.6 5.2 0.00 0.23 0.23 72 1015.6
20260505194104 57 24 0.9 4.3 0.00 0.23 0.23 76 1015.8
20260505193604 56 39 0.9 2.6 0.00 0.23 0.23 78 1015.8
20260505193104 56 44 0.9 2.6 0.00 0.23 0.23 79 1015.8
20260505192604 56 144 0.0 4.3 0.00 0.23 0.23 82 1015.8
20260505192105 56 153 1.7 4.3 0.00 0.23 0.23 83 1015.8
20260505191603 56 63 0.9 1.7 0.00 0.23 0.23 87 1015.9
20260505191107 55 63 0.9 2.6 0.00 0.23 0.23 89 1015.9
20260505190604 55 63 0.0 2.6 0.00 0.23 0.23 90 1015.9
20260505190104 55 63 1.7 2.6 0.00 0.23 0.23 91 1015.8
20260505185604 55 65 0.9 2.6 0.00 0.23 0.23 92 1015.9
20260505185104 56 129 0.0 2.6 0.00 0.23 0.23 94 1015.8
20260505184604 55 74 0.9 4.3 0.00 0.23 0.23 93 1015.8
20260505184104 55 66 0.9 4.3 0.00 0.23 0.23 95 1015.8
20260505183604 54 79 0.9 2.6 0.00 0.23 0.23 95 1015.8
20260505183104 54 78 0.0 2.6 0.00 0.23 0.23 95 1015.9
20260505182105 54 83 0.0 4.3 0.00 0.23 0.23 95 1015.9
20260505181605 54 164 0.0 2.6 0.00 0.23 0.23 96 1016.0
20260505180604 54 205 0.0 2.6 0.00 0.23 0.23 96 1016.1